{"data":{"norad_id":60021,"intl_designator":"2024-111F","name":"STARLINK-31967","alt_names":[],"object_type":"PAYLOAD","status":"ACTIVE","operator":null,"country":"US","launch_date":"2024-06-08","launch_site_code":"AFETR","launch_vehicle":null,"mission":null,"orbit_class":"UNKNOWN","rcs_meters":null,"size_class":null,"mass_kg":null,"dimensions":null,"purposes":["comms"],"wikipedia_slug":null,"has_3d_model":false,"image_url":null,"decayed_at":null,"tle_current":{"epoch":"2026-09-21T15:46:33.823488Z","epoch_age_seconds":77915,"freshness":"FRESH","line1":"1 60021U 24111F   26264.65733592  .00000297  00000+0  19931-4 0  9992","line2":"2 60021  53.1583 240.6480 0001400  89.7893 270.3270 15.34380065129119","mean_motion":15.34380065,"eccentricity":0.00014,"inclination_deg":53.1583,"raan_deg":240.648,"arg_perigee_deg":89.7893,"mean_anomaly_deg":270.327,"bstar":1.9931e-5,"rev_number":12911,"period_min":93.848977371848,"perigee_km":461.80476594085,"apogee_km":463.72021779858,"semimajor_km":6840.8994918697,"source":"CELESTRAK","updated_at":"2026-09-22T09:00:49.138212Z"}}}